Theta_e
300 300 300 300 300 300 300 300 300 300 300 301 301 301 301 302 302 305 306 306 305 305 308 311 312 322 324 323 323 324 326 326 324 321 321 322 324 323 328 328 330 330 331 330 331
300 300 300 300 300 300 300 300 300 300 301 301 302 302 301 302 302 307 308 305 304 305 307 311 312 317 322 325 324 326 328 327 325 323 322 322 322 325 328 328 331 330 330 330 332
300 300 300 300 300 300 300 300 301 301 302 302 302 302 302 302 307 312 308 308 308 307 309 312 310 318 319 322 325 326 329 327 326 324 322 322 323 323 326 329 331 331 331 331 330
300 300 300 300 302 300 300 301 302 303 303 302 302 302 303 303 309 313 310 307 306 307 311 313 313 314 321 323 323 327 327 327 327 326 324 324 323 324 323 324 326 327 328 328 329
300 300 300 301 302 301 301 302 303 303 304 304 303 304 305 309 306 303 305 307 308 308 308 310 314 313 318 321 323 325 326 326 325 325 325 325 325 326 326 325 325 326 328 329 329
300 300 300 301 301 302 302 303 304 304 304 304 304 305 309 310 307 308 308 309 310 309 308 308 312 314 314 317 320 322 323 324 325 325 326 326 326 327 328 328 328 329 330 329 329
300 301 301 301 302 302 302 303 303 304 304 305 305 306 310 308 307 308 310 310 309 309 309 309 308 309 315 316 315 318 321 322 324 325 325 327 328 330 328 329 330 329 329 329 329
300 300 301 301 301 302 302 303 303 303 305 305 306 307 311 307 308 309 309 309 309 309 309 309 309 308 309 313 316 317 318 321 322 324 324 325 329 329 327 327 329 329 329 329 329
299 300 301 301 301 302 303 304 303 304 305 306 309 310 310 308 308 308 309 309 309 309 309 308 308 308 308 312 315 318 319 320 321 323 324 324 327 328 326 328 328 328 328 328 329
299 300 301 301 301 304 306 306 304 305 305 306 307 312 308 308 307 307 309 309 309 309 309 310 310 311 310 311 314 316 319 319 321 322 323 323 324 325 326 326 327 327 327 328 328
298 300 301 301 301 305 307 309 311 310 308 308 308 308 307 307 308 308 309 309 309 309 311 310 312 312 311 312 311 314 317 319 320 320 322 324 324 325 324 324 326 326 327 327 327
298 301 304 303 301 304 308 309 308 307 309 308 307 308 307 307 308 309 309 310 310 311 311 311 312 311 311 311 310 312 315 317 319 318 321 322 324 324 325 325 325 326 326 326 326
298 304 306 305 301 304 309 308 308 308 310 308 308 307 307 307 308 308 309 310 311 311 311 310 311 311 310 310 310 312 313 315 317 318 320 321 323 324 324 324 324 324 324 323 324
298 306 303 304 305 305 309 308 308 307 311 308 309 308 307 307 309 308 309 309 311 311 311 310 310 310 310 310 310 311 311 312 314 318 320 320 323 323 323 324 324 323 323 323 323
300 305 304 306 307 309 308 308 308 308 312 308 309 307 307 308 308 309 308 310 312 312 313 313 311 310 310 309 310 310 311 312 315 316 318 319 322 322 322 323 324 324 323 322 321
300 308 308 308 308 308 308 308 307 312 311 309 309 309 309 308 308 308 308 310 311 313 313 313 312 312 310 310 309 311 311 312 314 316 319 318 319 320 321 322 322 323 321 320 320
300 308 308 308 310 308 308 308 312 312 309 310 309 309 309 308 309 308 308 309 312 314 312 313 313 312 311 309 310 310 311 312 314 316 317 318 319 320 321 320 321 321 320 320 320
301 308 308 308 308 308 309 310 313 309 309 309 309 310 308 309 309 309 309 308 311 312 314 314 313 312 312 311 311 310 310 313 314 315 315 316 317 319 319 320 320 319 319 320 323
303 309 310 308 307 307 309 314 311 310 309 309 310 309 309 309 309 309 309 309 310 310 311 313 313 312 311 311 311 311 310 311 311 312 314 316 316 317 319 319 320 319 319 320 323
305 311 310 308 306 309 311 309 310 308 308 309 309 309 310 309 309 309 309 309 309 309 309 311 313 311 311 311 311 312 310 311 310 314 313 315 317 317 318 318 319 320 320 320 321
307 311 308 307 306 308 312 310 309 308 308 309 309 309 310 310 309 309 309 308 309 309 308 309 311 312 311 312 312 313 311 311 312 311 311 314 316 318 319 319 320 320 319 319 320
306 312 308 302 309 308 308 307 306 309 308 308 309 309 309 309 309 309 309 309 308 308 309 309 311 312 311 311 310 311 313 313 315 315 313 314 318 319 320 320 320 319 318 319 319
305 305 305 305 309 307 306 307 307 308 308 308 309 308 308 308 309 308 308 307 307 308 310 311 310 312 310 312 312 311 310 311 313 314 317 314 316 318 318 318 317 318 318 318 318
305 310 309 306 305 306 306 308 308 307 308 308 308 308 308 309 308 310 308 308 307 307 306 309 312 311 312 311 311 311 311 312 312 314 313 314 315 317 318 317 317 317 317 316 317
304 308 306 311 309 306 306 306 307 308 308 307 308 308 308 309 310 309 309 309 309 308 308 309 312 311 310 310 310 310 310 311 312 312 313 313 314 315 316 316 316 315 314 314 317
305 305 305 305 305 306 306 307 307 308 306 307 308 307 307 308 308 309 309 310 310 309 310 311 311 311 311 310 310 310 310 310 310 311 312 312 313 313 313 312 313 313 313 315 318
303 302 302 305 306 306 307 306 305 305 305 306 307 308 308 309 308 308 308 308 309 309 309 311 311 312 312 310 309 311 311 311 312 312 312 313 313 313 313 314 314 313 313 315 318
Wind_Speed
15 14 13 13 13 13 13 13 13 13 12 12 12 12 12 12 11 9 5 9 8 11 15 14 8 9 13 17 18 16 13 16 21 16 16 12 14 19 9 12 7 3 3 5 3
15 14 15 15 15 14 13 12 13 14 14 14 13 12 12 12 12 3 8 5 3 5 9 14 16 16 18 19 16 17 16 24 17 12 13 19 19 13 8 15 13 9 7 5 8
15 15 15 16 15 14 13 12 12 12 14 14 14 13 12 10 1 3 4 3 5 6 4 8 17 18 25 20 27 25 25 19 22 17 18 22 22 19 16 17 16 13 9 7 5
14 14 15 15 14 13 12 11 12 14 16 15 14 15 14 7 2 4 5 13 15 13 6 5 12 22 21 25 26 25 28 31 26 21 18 20 23 26 26 27 26 11 14 17 14
15 15 15 15 13 13 12 11 12 13 13 13 14 17 12 2 4 5 11 13 10 7 6 8 12 19 25 19 28 28 28 28 26 26 25 19 28 25 28 29 27 25 22 22 23
16 16 15 15 12 12 9 9 12 14 14 14 14 14 5 3 6 9 8 8 7 6 6 8 10 13 20 26 26 26 29 35 34 25 22 26 30 29 28 29 28 26 28 26 21
17 16 15 15 13 12 11 11 12 15 16 13 9 8 1 6 11 10 10 8 8 5 7 8 12 15 7 17 29 30 27 25 23 31 30 23 24 36 33 35 26 24 25 26 23
20 19 18 16 15 14 13 13 14 14 11 6 7 6 1 10 13 12 10 10 9 8 7 8 10 19 22 20 21 18 23 24 33 24 29 26 32 37 32 34 36 34 32 30 26
20 20 18 16 13 13 13 15 13 9 4 5 3 2 4 9 14 12 13 12 14 11 9 7 8 18 19 19 18 21 24 32 31 30 25 18 32 35 38 28 25 28 26 27 25
22 21 19 16 13 11 14 15 10 4 4 3 4 2 1 11 15 15 8 10 12 11 12 10 10 13 15 17 23 26 29 29 30 23 27 30 34 29 25 13 26 30 30 29 26
24 24 20 15 11 8 15 12 6 2 7 7 5 4 6 13 13 9 9 10 8 9 12 17 12 17 16 20 29 27 29 26 29 23 25 28 34 32 32 36 29 30 27 27 28
26 25 21 14 8 5 11 5 5 6 8 9 9 8 6 7 9 7 6 6 9 11 12 12 19 19 19 19 24 28 30 32 22 16 21 28 33 28 27 27 34 35 33 33 31
27 25 19 10 5 1 3 4 3 8 6 3 2 4 4 7 13 11 7 11 13 14 11 16 20 17 15 17 20 24 27 26 29 16 19 21 29 29 28 31 32 30 31 31 30
26 22 16 3 4 1 1 5 9 2 4 4 4 3 6 12 9 12 4 11 9 11 13 15 16 17 19 21 21 24 24 27 26 25 19 21 22 24 26 27 28 33 31 29 27
22 15 11 8 3 3 3 9 8 1 3 2 2 3 12 6 9 1 8 8 13 16 13 18 17 16 18 19 21 23 21 26 20 23 25 29 17 17 17 20 20 19 26 28 28
19 6 6 6 6 5 9 8 3 6 1 2 2 7 12 10 9 7 11 5 14 12 16 21 20 19 17 17 19 17 17 21 18 20 22 33 24 23 22 25 22 20 20 21 19
15 2 4 5 3 9 9 1 5 4 2 2 7 11 14 9 8 8 13 11 7 8 13 18 9 13 18 18 18 15 17 13 15 13 16 22 23 20 7 6 12 13 7 6 7
12 3 1 5 7 10 4 5 4 4 5 7 9 15 5 8 7 13 12 12 4 7 12 9 6 7 7 19 18 18 18 13 19 17 20 22 15 17 17 24 16 12 12 3 7
8 5 0 5 9 9 7 4 5 6 5 9 14 5 1 4 6 8 13 8 5 7 8 12 6 7 13 11 14 22 18 21 23 24 19 18 24 22 8 9 9 3 5 4 9
4 4 1 7 10 5 5 4 4 3 7 7 6 3 9 12 11 10 10 1 7 5 11 8 12 5 2 11 20 21 12 13 14 14 17 18 21 12 25 27 16 5 1 7 12
4 3 4 7 6 3 2 4 5 4 7 6 9 12 12 12 10 11 7 12 4 10 13 15 6 13 9 6 8 13 18 9 16 13 16 13 16 18 12 14 12 5 5 12 15
5 1 5 8 2 2 3 6 4 4 5 7 7 7 8 9 14 13 12 8 11 13 16 15 6 13 16 4 9 13 8 5 11 14 15 15 3 2 14 15 8 3 11 14 17
7 3 5 5 2 4 7 5 4 7 7 5 5 6 8 11 6 7 10 10 18 14 6 10 6 11 10 5 9 7 13 12 13 16 14 15 9 10 11 8 5 10 16 17 19
6 2 2 5 3 4 6 1 3 6 10 5 11 12 11 12 11 10 17 9 16 20 16 14 13 14 13 20 11 10 10 12 12 11 17 16 21 14 17 9 12 17 20 22 21
7 3 4 3 1 8 6 4 5 4 4 13 5 9 11 6 17 19 12 18 19 22 15 5 14 18 20 19 17 17 18 18 19 19 19 20 18 18 19 18 17 23 28 28 21
6 7 8 10 6 7 1 2 5 4 7 9 10 12 14 16 17 23 21 18 6 5 10 9 10 12 17 18 19 20 21 22 23 22 23 22 24 23 25 28 26 26 24 22 20
6 6 3 6 3 4 2 4 8 13 10 10 12 17 17 17 21 28 29 27 16 6 4 6 6 7 14 10 12 14 17 18 19 20 18 20 20 19 21 19 20 22 22 22 21
Wind_Direction
13 10 5 359 353 346 341 338 337 335 332 331 330 331 325 317 315 313 284 244 254 247 232 228 241 220 207 218 223 230 241 242 243 231 252 256 255 247 247 248 220 227 132 19 169
13 10 4 359 353 345 340 339 339 334 333 333 341 344 331 327 326 308 220 161 89 328 245 233 228 217 212 218 216 217 229 242 250 254 248 245 252 254 248 231 224 216 214 49 61
9 6 3 359 356 349 344 345 344 346 342 341 350 354 344 339 340 148 146 245 282 336 304 246 226 225 225 223 220 223 241 239 242 245 252 261 258 247 243 247 233 223 227 230 298
6 4 2 3 1 358 351 350 351 352 348 349 352 352 355 33 347 173 299 307 305 304 298 275 229 222 231 230 226 238 246 246 254 243 247 256 262 260 254 254 249 236 252 277 279
358 357 357 1 2 1 357 353 346 346 358 355 351 352 2 338 49 304 317 325 334 335 263 258 244 229 235 237 235 237 243 245 246 255 251 260 255 256 255 251 250 256 260 265 277
353 351 350 354 356 358 359 347 333 333 343 336 336 350 8 90 352 351 356 326 329 329 296 250 246 251 273 255 244 244 245 249 251 239 246 250 257 256 249 251 256 254 257 260 257
354 351 348 347 349 349 348 333 322 320 325 327 332 4 64 35 21 359 339 326 303 297 301 287 252 244 254 255 251 254 259 261 243 242 239 241 266 249 245 249 252 250 251 255 258
354 348 346 344 343 346 343 334 326 321 324 350 342 15 220 359 6 357 333 335 323 290 275 285 272 251 249 260 277 259 245 246 237 230 241 226 254 258 234 237 246 249 252 255 255
348 344 338 337 336 339 344 341 328 328 359 352 34 339 113 345 346 341 331 320 322 299 260 270 260 243 241 235 252 241 243 236 244 229 223 209 240 250 258 243 233 243 245 251 253
342 342 336 330 334 341 352 350 339 335 332 48 16 247 52 334 334 333 329 323 318 305 272 243 242 241 230 231 237 235 236 245 256 235 222 226 244 249 243 234 245 243 245 248 250
341 339 336 331 332 338 357 350 322 223 314 292 314 301 333 324 329 320 319 309 301 281 272 250 255 247 255 252 249 260 267 266 255 249 254 226 240 246 244 252 249 252 249 250 251
341 338 334 329 325 317 7 22 27 325 298 291 261 267 297 309 309 330 331 308 308 287 288 254 249 263 279 280 269 250 252 255 261 283 245 246 243 246 249 250 251 251 252 256 260
341 339 336 321 324 302 37 39 5 339 274 342 198 276 315 296 295 300 297 303 285 286 281 273 268 282 281 270 259 260 252 251 251 268 239 254 252 249 244 245 252 256 255 258 259
344 343 348 360 73 17 25 336 336 347 264 126 186 171 307 317 260 311 266 297 274 285 300 290 287 268 259 263 264 260 251 254 249 244 242 219 253 242 233 239 243 248 251 256 258
346 358 39 64 80 26 300 323 320 142 256 101 174 287 321 294 303 85 312 296 278 296 292 293 289 260 252 258 265 260 253 249 240 240 249 246 251 253 259 254 252 254 255 258 263
346 3 37 41 35 360 341 325 150 231 115 158 269 318 316 322 302 304 313 264 291 288 277 279 278 262 260 269 292 251 256 239 246 238 230 236 241 253 252 253 250 250 251 261 261
344 312 18 30 337 347 348 170 247 278 113 56 328 325 312 297 310 337 332 311 328 319 333 311 286 275 234 259 272 245 243 231 221 230 242 227 228 238 242 329 294 250 235 276 279
343 203 1 21 357 344 342 241 282 59 342 344 319 310 295 8 347 333 322 316 99 311 302 327 325 13 240 227 254 245 231 230 222 224 233 231 234 224 238 253 207 273 263 264 338
343 192 321 336 350 344 286 263 355 6 355 324 314 304 27 312 323 313 323 314 341 347 335 312 286 275 246 259 264 252 250 241 264 278 246 219 219 251 226 217 204 186 204 329 352
18 178 283 325 337 329 272 325 317 337 318 305 308 304 320 326 314 325 321 317 310 299 331 308 301 272 276 258 253 244 262 269 243 251 240 236 209 223 216 232 234 164 85 9 7
49 212 339 343 355 299 289 354 304 320 322 313 312 298 311 313 298 303 277 294 281 306 315 296 281 290 249 234 238 284 226 216 261 259 255 221 221 212 241 190 147 112 27 18 3
6 237 324 354 268 323 311 342 334 287 293 291 282 282 277 306 296 292 285 275 300 314 302 299 289 284 281 237 179 241 228 322 263 231 252 275 72 110 155 119 113 20 14 3 357
348 304 344 28 345 346 336 298 262 296 314 300 304 286 298 291 301 292 288 298 306 304 318 349 259 293 286 183 208 236 262 260 248 275 276 253 236 139 153 146 69 358 346 340 344
336 328 45 58 94 332 344 350 322 310 289 255 290 275 277 293 279 270 286 285 297 290 287 303 265 259 279 303 314 292 282 269 277 263 260 243 263 189 202 298 323 324 315 320 326
2 28 359 324 19 336 299 284 305 313 276 300 276 255 295 280 302 285 300 305 285 275 264 255 265 269 269 271 280 276 268 262 256 256 264 266 267 266 279 295 310 301 300 301 312
5 349 333 297 302 315 233 274 305 309 303 289 275 301 304 286 283 289 299 302 271 320 254 229 255 276 292 284 271 271 267 260 254 249 254 258 265 273 277 280 281 287 291 302 309
1 338 284 289 289 310 331 322 304 308 292 258 288 295 292 292 307 294 287 280 257 225 230 279 269 282 267 282 294 270 264 253 254 250 255 256 260 263 266 270 275 284 289 295 298